Date String (YYYY-MM-DD hh:mm:ss) UTC,Instrument flags,absolute air pressure of the measurement (hPa),sample flow rate (lpm),inlet stack bypass flow (lpm),air temperature of the measurement (°C),ambient temperature measured by the external sensor (°C),aerosol sample conditioner tube jacket temperature (°C),OPC LED temperature (°C),internal box temperature (°C),relative humidity of the measurement (%),span deviation,mass concentration of particles derived from Lorenz-Mie calculation of OPC scattering (μg/m³),mass concentration of particles derived from Lorenz-Mie calculation of OPC scattering (μg/m³),mass concentration of particles derived from Lorenz-Mie calculation of OPC scattering (μg/m³)
DateTimeUTC,F1_M11,P_M11,Q1_M11,Q2_M11,T1_M11,T2_M11,T3_M11,T4_M11,T5_M11,U1_M11,ZSPAN_M11,X0_M11,X2_M11,X1_M11
2023-11-24 08:00:00,SystemResetWarning,0833.4,5.01,000.00,018.9,018.3,000.0,027.2,020.7,15.5,0000.0,0006.91,0003.72,0003.25
2023-11-24 08:01:00,SystemResetWarning,0833.4,5.01,000.00,019.1,018.9,000.0,027.2,020.9,15.4,0000.0,0006.69,0003.69,0003.25
2023-11-24 08:02:00,SystemResetWarning,0833.4,4.98,000.00,019.1,018.9,000.0,027.2,020.7,15.4,0000.0,0006.78,0003.69,0003.24
2023-11-24 08:03:00,SystemResetWarning,0833.4,5.00,000.00,019.1,018.9,000.0,027.3,020.6,15.3,0000.0,0006.79,0003.69,0003.23
2023-11-24 08:04:00,SystemResetWarning,0833.4,5.01,000.00,019.1,018.8,000.0,027.3,020.4,15.3,0000.0,0006.57,0003.65,0003.22
2023-11-24 08:05:00,SystemResetWarning,0833.4,5.01,000.00,019.1,018.7,000.0,027.3,020.3,15.3,0000.0,0007.60,0003.63,0003.22
2023-11-24 08:06:00,SystemResetWarning,0833.4,5.00,000.00,019.1,018.6,000.0,027.3,020.2,15.3,0000.0,0007.56,0003.61,0003.21
2023-11-24 08:07:00,SystemResetWarning,0833.4,5.00,000.00,019.1,018.5,000.0,027.3,020.2,15.4,0000.0,0007.43,0003.57,0003.21
2023-11-24 08:08:00,SystemResetWarning,0833.4,5.00,000.00,019.1,018.4,000.0,027.3,020.2,15.4,0000.0,0007.31,0003.53,0003.20
2023-11-24 08:09:00,SystemResetWarning,0833.4,5.00,000.00,019.0,018.4,000.0,027.3,020.1,15.4,0000.0,0007.09,0003.51,0003.19
2023-11-24 08:10:00,SystemResetWarning,0833.4,5.00,000.00,019.0,018.3,000.0,027.3,020.1,15.4,0000.0,0007.16,0003.51,0003.19
2023-11-24 08:11:00,SystemResetWarning,0833.4,5.00,000.00,019.0,018.3,000.0,027.3,020.1,15.4,0000.0,0007.32,0003.51,0003.19
2023-11-24 08:12:00,SystemResetWarning,0833.4,5.00,000.00,019.0,018.3,000.0,027.3,020.1,15.4,0000.0,0007.38,0003.53,0003.18
2023-11-24 08:13:00,SystemResetWarning,0833.4,5.00,000.00,019.0,018.2,000.0,027.3,020.1,15.4,0000.0,0007.36,0003.52,0003.16
2023-11-24 08:14:00,SystemResetWarning,0833.4,5.00,000.00,019.0,018.2,000.0,027.3,020.1,15.5,0000.0,0007.30,0003.52,0003.16
2023-11-24 08:15:00,SystemResetWarning,0833.4,5.00,000.00,018.9,018.2,000.0,027.3,020.0,15.4,0000.0,0007.48,0003.56,0003.16
2023-11-24 08:16:00,SystemResetWarning,0833.4,5.00,000.00,018.9,018.1,000.0,027.3,020.0,15.5,0000.0,0006.67,0003.58,0003.16
2023-11-24 08:17:00,SystemResetWarning,0833.4,5.00,000.00,018.9,018.1,000.0,027.3,020.0,15.5,0000.0,0006.70,0003.59,0003.15
2023-11-24 08:18:00,SystemResetWarning,0833.4,5.01,000.00,018.9,018.1,000.0,027.3,020.0,15.5,0000.0,0006.76,0003.61,0003.15
2023-11-24 08:19:00,SystemResetWarning,0833.4,5.00,000.00,018.9,018.1,000.0,027.3,020.0,15.5,0000.0,0006.83,0003.63,0003.15
2023-11-24 08:20:00,SystemResetWarning,0833.4,5.00,000.00,018.9,018.0,000.0,027.3,020.0,15.5,0000.0,0006.95,0003.64,0003.16
2023-11-24 08:21:00,SystemResetWarning,0833.4,5.00,000.00,018.9,018.0,000.0,027.3,020.0,15.5,0000.0,0007.41,0003.65,0003.15
2023-11-24 08:22:00,SystemResetWarning,0833.4,5.00,000.00,018.9,018.0,000.0,027.2,020.0,15.5,0000.0,0007.39,0003.66,0003.15
2023-11-24 08:23:00,SystemResetWarning,0833.4,5.00,000.00,018.9,018.0,000.0,027.2,020.0,15.5,0000.0,0007.30,0003.63,0003.15
2023-11-24 08:24:00,SystemResetWarning,0833.4,5.00,000.00,018.9,018.0,000.0,027.2,020.0,15.5,0000.0,0007.09,0003.62,0003.15
2023-11-24 08:25:00,SystemResetWarning,0833.5,5.00,000.00,018.8,018.0,000.0,027.2,020.0,15.5,0000.0,0007.17,0003.63,0003.15
2023-11-24 08:26:00,SystemResetWarning,0833.4,5.00,000.00,018.8,018.0,000.0,027.2,020.0,15.5,0000.0,0007.12,0003.62,0003.14
2023-11-24 08:27:00,SystemResetWarning,0833.4,4.99,000.00,018.8,018.0,000.0,027.2,020.0,15.5,0000.0,0006.85,0003.60,0003.13
2023-11-24 08:28:00,SystemResetWarning,0833.6,4.99,000.00,018.8,017.9,000.0,027.2,020.0,15.5,0000.0,0006.81,0003.60,0003.12
2023-11-24 08:29:00,SystemResetWarning,0833.5,5.02,000.00,018.8,017.9,000.0,027.2,020.0,15.5,0000.0,0006.90,0003.59,0003.11
2023-11-24 08:30:00,SystemResetWarning,0833.5,5.00,000.00,018.8,017.9,000.0,027.2,020.0,15.5,0000.0,0006.98,0003.58,0003.09
2023-11-24 08:31:00,SystemResetWarning,0833.5,5.00,000.00,018.8,017.9,000.0,027.2,020.0,15.5,0000.0,0006.90,0003.56,0003.07
2023-11-24 08:32:00,SystemResetWarning,0833.5,4.99,000.00,018.8,017.9,000.0,027.2,020.0,15.5,0000.0,0006.09,0003.52,0003.04
2023-11-24 08:33:00,SystemResetWarning,0833.6,5.00,000.00,018.8,017.9,000.0,027.2,020.0,15.5,0000.0,0005.94,0003.50,0003.01
2023-11-24 08:34:00,SystemResetWarning,0833.6,5.00,000.00,018.8,017.9,000.0,027.2,020.0,15.4,0000.0,0005.80,0003.50,0003.01
2023-11-24 08:35:00,SystemResetWarning,0833.6,5.00,000.00,018.8,017.9,000.0,027.2,020.1,15.4,0000.0,0005.64,0003.47,0002.99
2023-11-24 08:36:00,SystemResetWarning,0833.6,5.00,000.00,018.9,018.2,000.0,027.2,020.6,15.3,0000.0,0005.79,0003.43,0002.98
2023-11-24 08:37:00,SystemResetWarning,0833.6,5.01,000.00,019.1,018.9,000.0,027.2,020.9,15.2,0000.0,0006.23,0003.44,0002.97
2023-11-24 08:38:00,SystemResetWarning,0833.7,4.98,000.00,019.1,019.0,000.0,027.2,020.8,15.1,0000.0,0006.09,0003.43,0002.96
2023-11-24 08:39:00,SystemResetWarning,0833.6,4.99,000.00,019.1,018.9,000.0,027.3,020.6,15.1,0000.0,0006.06,0003.41,0002.93
2023-11-24 08:40:00,SystemResetWarning,0833.6,5.01,000.00,019.1,018.8,000.0,027.3,020.5,15.1,0000.0,0005.90,0003.39,0002.92
2023-11-24 08:41:00,SystemResetWarning,0833.6,5.00,000.00,019.1,018.7,000.0,027.3,020.4,15.1,0000.0,0005.89,0003.39,0002.90
2023-11-24 08:42:00,SystemResetWarning,0833.6,4.99,000.00,019.1,018.6,000.0,027.3,020.3,15.1,0000.0,0005.92,0003.39,0002.88
2023-11-24 08:43:00,SystemResetWarning,0833.7,4.99,000.00,019.1,018.5,000.0,027.3,020.3,15.1,0000.0,0005.92,0003.38,0002.87
2023-11-24 08:44:00,SystemResetWarning,0833.7,5.00,000.00,019.1,018.5,000.0,027.3,020.2,15.1,0000.0,0005.90,0003.38,0002.87
2023-11-24 08:45:00,SystemResetWarning,0833.7,5.00,000.00,019.0,018.4,000.0,027.3,020.2,15.1,0000.0,0005.82,0003.36,0002.87
2023-11-24 08:46:00,SystemResetWarning,0833.7,5.00,000.00,019.0,018.3,000.0,027.3,020.2,15.1,0000.0,0006.28,0003.42,0002.87
2023-11-24 08:47:00,SystemResetWarning,0833.6,5.00,000.00,019.0,018.3,000.0,027.3,020.1,15.1,0000.0,0006.35,0003.46,0002.88
2023-11-24 08:48:00,SystemResetWarning,0833.6,5.00,000.00,019.0,018.2,000.0,027.3,020.1,15.1,0000.0,0005.74,0003.44,0002.88
2023-11-24 08:49:00,SystemResetWarning,0833.7,5.00,000.00,019.0,018.2,000.0,027.3,020.1,15.1,0000.0,0006.12,0003.44,0002.89
2023-11-24 08:50:00,SystemResetWarning,0833.6,5.00,000.00,018.9,018.2,000.0,027.3,020.0,15.1,0000.0,0006.38,0003.46,0002.90
2023-11-24 08:51:00,SystemResetWarning,0833.7,4.99,000.00,018.9,018.1,000.0,027.3,020.1,15.1,0000.0,0006.43,0003.47,0002.91
2023-11-24 08:52:00,SystemResetWarning,0833.7,4.99,000.00,018.9,018.1,000.0,027.3,020.0,15.1,0000.0,0006.37,0003.45,0002.91
2023-11-24 08:53:00,SystemResetWarning,0833.7,5.01,000.00,018.9,018.1,000.0,027.3,020.0,15.1,0000.0,0006.47,0003.43,0002.91
2023-11-24 08:54:00,SystemResetWarning,0833.7,5.02,000.00,018.9,018.1,000.0,027.3,020.0,15.1,0000.0,0006.59,0003.44,0002.92
2023-11-24 08:55:00,SystemResetWarning,0833.7,5.00,000.00,018.9,018.0,000.0,027.3,020.0,15.1,0000.0,0006.44,0003.40,0002.90
2023-11-24 08:56:00,SystemResetWarning,0833.7,4.99,000.00,018.9,018.0,000.0,027.2,020.0,15.1,0000.0,0006.47,0003.39,0002.89
2023-11-24 08:57:00,SystemResetWarning,0833.7,5.00,000.00,018.9,018.0,000.0,027.2,020.0,15.1,0000.0,0006.65,0003.38,0002.88
2023-11-24 08:58:00,SystemResetWarning,0833.7,5.01,000.00,018.9,018.0,000.0,027.2,020.0,15.1,0000.0,0006.87,0003.37,0002.86
2023-11-24 08:59:00,SystemResetWarning,0833.7,5.01,000.00,018.9,018.0,000.0,027.2,020.0,15.1,0000.0,0006.92,0003.37,0002.84
